Regional & State Weather Roundups


052 
ASUS43 KFSD 220302
RWRSD 
WEATHER ROUNDUP FOR SOUTH DAKOTA
NATIONAL WEATHER SERVICE SIOUX FALLS SD
1000 PM CDT TUE MAY 21 2019
NOTE: "FAIR" INDICATES FEW OR NO CLOUDS BELOW 12,000 FEET WITH NO
SIGNIFICANT WEATHER AND/OR OBSTRUCTIONS TO VISIBILITY.
SDZ001>005-009-010-012>017-220400-
NORTHWEST AND NORTH CENTRAL SOUTH DAKOTA
  
CITY           SKY/WX    TMP DP  RH WIND       PRES   REMARKS
FAITH            N/A     41  41 100 NE30G39   29.66S                  
MOBRIDGE       LGT RAIN  49  41  74 E16G28    29.65F                  
$$
 
SDZ012>016-024>037-041>051-057-063-072>074-220400-
SOUTHWEST AND SOUTH CENTRAL SOUTH DAKOTA
  
CITY           SKY/WX    TMP DP  RH WIND       PRES   REMARKS
RAPID CTY ARPT RAIN      36  34  92 NE26G35   29.64F FOG              
PIERRE         LGT RAIN  45  42  89 NE26G39   29.53F                  
CUSTER         LGT SNOW  30  27  88 NE13G23   29.57F VSB 3/4 WCI  20  
PHILIP         LGT RAIN  44  44 100 NE23G37   29.55F                  
PINE RIDGE     LGT RAIN  38  34  85 N13       29.52F                  
SPEARFISH      SNOW      32  32 100 MISG      29.71S VSB 1/2          
WINNER         LGT RAIN  44  41  89 NE21G30   29.43S                  
$$
 
SDZ004>011-016>023-039-040-220400-
NORTHEAST SOUTH DAKOTA
  
CITY           SKY/WX    TMP DP  RH WIND       PRES   REMARKS
ABERDEEN       CLOUDY    49  42  77 E32G45    29.63F                  
WATERTOWN      RAIN      45  42  89 E24G49    29.57F FOG              
BROOKINGS      LGT RAIN  44  43  96 E21G31    29.56R FOG              
SISSETON         N/A     47  45  93 E23G33    29.68F                  
$$
 
SDZ017-020-022-023-036>040-048>070-220400-
SOUTHEAST SOUTH DAKOTA
  
CITY           SKY/WX    TMP DP  RH WIND       PRES   REMARKS
SIOUX FALLS    HVY RAIN  47  45  93 SE9G28    29.52R FOG              
HURON          LGT RAIN  46  43  89 E23G36    29.53F                  
CHAMBERLAIN    RAIN      46  46 100 NE16G23   29.46F                  
MITCHELL       RAIN      46  43  89 E26G35    29.46F FOG              
YANKTON        CLOUDY    47  46  97 E20       29.40S                  
$$
 
ABBREVIATIONS USED IN REMARKS
   TC - TEMPERATURE IN CELSIUS
  WCI - WIND CHILL INDEX
   HX - HEAT INDEX
  VSB - VISIBILITY
  

053 
ASUS43 KFSD 220302
RWRFSD
WEATHER ROUNDUP FOR SE SOUTH DAKOTA/SW MINNESOTA/NW IOWA
NATIONAL WEATHER SERVICE SIOUX FALLS SD
1000 PM CDT TUE MAY 21 2019
NOTE: "FAIR" INDICATES FEW OR NO CLOUDS BELOW 12,000 FEET WITH NO
SIGNIFICANT WEATHER AND OR OBSTRUCTIONS TO VISIBILITY.
SDZ038>040-050-052>070-220400-
SOUTHEAST SOUTH DAKOTA
  
CITY           SKY/WX    TMP DP  RH WIND       PRES   REMARKS
BROOKINGS      LGT RAIN  44  43  96 E21G31    29.56R FOG              
CHAMBERLAIN    RAIN      46  46 100 NE16G23   29.46F                  
HURON          LGT RAIN  46  43  89 E23G36    29.53F                  
MITCHELL       RAIN      46  43  89 E26G35    29.46F FOG              
SIOUX FALLS    HVY RAIN  47  45  93 SE9G28    29.52R FOG              
WINNER         LGT RAIN  44  41  89 NE21G30   29.43S                  
YANKTON        CLOUDY    47  46  97 E20       29.40S                  
$$
MNZ071-072-080-081-089-090-097-098-220400-
SOUTHWEST MINNESOTA
  
CITY           SKY/WX    TMP DP  RH WIND       PRES   REMARKS
FAIRMONT       LGT RAIN  47  44  90 E26G40    29.59R                  
JACKSON        LGT RAIN  45  45 100 E28G35    29.58R                  
LUVERNE        RAIN      45  43  93 E25G40    29.53R                  
MARSHALL       CLOUDY    46  44  93 E22G31    29.61R                  
MONTEVIDEO     LGT RAIN  45  45 100 SE26G37   29.64                   
PIPESTONE      DRIZZLE   45  43  93 SE31G40   29.52R                  
REDWOOD FALLS  LGT RAIN  46  44  93 E18G35    29.64S                  
WINDOM         CLOUDY    45  43  93 E22G32    29.59R                  
WORTHINGTON    LGT RAIN  45  44  97 E29G36    29.54R FOG              
$$
IAZ001>003-012>014-020>022-031-032-NEZ013-014-SDZ071-220400-
NORTHWEST IOWA
  
CITY           SKY/WX    TMP DP  RH WIND       PRES   REMARKS
CHEROKEE       CLOUDY    50  50  99 SE17G29   29.49R                  
DENISON        CLOUDY    52  52 100 SW16G24   29.51R FOG              
ESTHERVILLE    RAIN      46  45  96 E32G45    29.54S FOG              
LE MARS        LGT RAIN  50  50 100 E17G24    29.45R                  
MAURICE        LGT RAIN  48  48 100 E16G23    29.47R                  
SHELDON          N/A     48  48 100 E24G33    29.49R FOG              
SIOUX CITY     CLOUDY    50  49  96 E12       29.42S                  
SPENCER        CLOUDY    50  47  89 SE25G39   29.53R                  
STORM LAKE     CLOUDY    50  50 100 SE21G35   29.46R                  
$$
 
ABBREVIATIONS USED IN REMARKS
   TC - TEMPERATURE IN CELSIUS
  WCI - WIND CHILL INDEX
   HX - HEAT INDEX
  VSB - VISIBILITY